DMSP 5D-2 F11 DEB

Satellite information

Favourite Embed

Satellite Type and Status

DEBRISIN ORBIT

Key statistics

Satellite DMSP 5D-2 F11 DEB at a glance.

Uptime

12378

Days in orbit

Revolutions

≈ 14.0

Per day

Orbit

SSO

Sun Synchronous Orbit

Inclination

98.6

Latest

Satellite identification and parameters

Extended collection of information and parameters for DMSP 5D-2 F11 DEB.

Object identification

Identified? True

Debris? True

Object name: DMSP 5D-2 F11 DEB

International designator: 1991-082AK

Object number (NORAD): 28322

Object ID (CCSDS): 28322

Country: UNITED STATES OF AMERICA (US)

Current information (Y/N): Y

RCS size: SMALL

Orbital parameters

Period: 102.956 minutes

Inclination: 98.5654 deg

SMA: 7276.611 km

Apoapsis: 979.826 km

Periapsis: 817.126 km

RAAN: 300.396 deg

Eccentricy: 0.0111796

Argument of periapsis: 182.1957 deg

Mean anomaly: 210.7647 deg

Mean motion: 13.98649893 rev/day

Mean motion (dot): 0.00001087 rev/day2

B* drag term: 0.00074382097 1/REarth

Two-line elements (TLE)

Creation date: Oct. 18, 2025, 2:17 a.m.

Reference frame: TEME

Reference center: EARTH

Epoch: Oct. 17, 2025, 11:19 p.m. UTC

TLE line 0: 0 DMSP 5D-2 F11 DEB

TLE line 1: 1 28322U 91082AK 25290.97168088 .00001087 00000-0 74382-3 0 9995

TLE line 2: 2 28322 98.5654 300.3960 0111796 182.1957 210.7647 13.98649893 93352

Live tracking on map

Real-time ground track for satellite DMSP 5D-2 F11 DEB.

In-orbit conjunctions

A list of the most updated potential collisions computed for object DMSP 5D-2 F11 DEB.

Target Orbit TCA Probability of collision Miss distance Type
DELTA 1 DEB SSO 2025-06-27 04:54:43 0.0002998345 117.0 (m) DEBRIS
COSMOS 2173 LEO 2025-03-10 05:32:45 0.0001578584 993.0 (m) PAYLOAD
REX LEO 2024-08-10 21:12:09 0.0004075913 639.0 (m) PAYLOAD

Associated space launch

Military meteorological satellite

DMSP 5D-2 F11 DEB was lifted into orbit during the mission ‘Atlas E | DMSP-5D2 F11’, on board a Atlas E space rocket.

The launch took place on Nov. 28, 1991, 1:23 p.m. from Space Launch Complex 3W.

For more information about the launch, click the button.

Launch to space Atlas E | DMSP-5D2 F11
Atlas E | DMSP-5D2 F11

Agency: N/A

Status: Launch Successful

Launch date: Nov. 28, 1991, 1:23 p.m. UTC

Rocket: Atlas E

Launch pad: Space Launch Complex 3W

Location: Vandenberg SFB, CA, USA

...

Latest news about this satellite

There are no fresh news available about this satellite. Check back as we update our databases every day.


Newsletter sign-up

Weekly statistics, charts and insights to help you stay on top of the space industry.